Theta_e
331 329 328 328 329 329 331 336 339 337 334 334 332 332 332 332 338 347 346 341 338 341 341 341 343 344 343 343 344 345 345 343 344 344 346 346 348 353 356 354 351 347
336 334 331 331 331 330 332 338 342 341 338 335 335 334 334 333 335 342 345 341 338 340 341 341 343 343 343 343 343 343 342 342 342 342 344 345 345 351 356 356 353 347
337 336 335 335 334 333 335 339 344 345 342 339 338 339 341 341 338 339 340 338 336 338 341 343 343 342 343 343 343 342 342 341 341 340 342 344 344 347 352 355 355 351
339 338 337 337 337 337 337 340 345 348 347 343 340 341 346 348 345 340 339 336 335 336 340 342 343 343 343 342 342 342 341 339 340 340 340 341 343 344 346 352 355 355
340 339 339 340 340 341 340 342 346 347 347 346 341 340 345 351 350 346 341 337 334 335 338 342 343 343 343 343 343 342 341 340 339 339 339 338 342 344 343 346 351 354
341 341 342 342 342 344 343 342 345 346 345 346 342 339 344 349 351 350 346 338 335 336 336 339 341 343 343 342 342 342 341 341 340 339 339 338 340 341 341 341 343 347
343 342 343 343 344 346 346 342 343 345 344 345 343 340 342 347 349 351 349 342 337 336 337 337 338 339 341 341 341 342 340 341 342 340 339 339 339 339 338 338 339 340
343 343 343 345 345 346 346 344 344 345 343 344 346 344 343 345 346 347 348 345 340 338 338 339 338 337 339 339 339 340 340 339 342 341 338 338 340 339 337 337 337 338
345 345 344 345 345 345 345 344 344 344 343 345 347 346 345 345 345 345 347 345 341 339 339 340 341 338 339 339 337 338 339 338 339 339 338 338 338 339 338 336 336 335
347 346 345 345 346 345 344 345 344 343 343 345 347 348 346 345 344 343 345 344 342 341 340 341 342 341 340 339 336 335 337 338 338 338 338 337 337 338 337 336 335 334
347 347 346 345 345 345 344 345 349 347 343 343 346 347 348 348 345 343 343 342 343 342 341 339 341 341 339 340 338 336 335 336 337 338 337 336 336 337 336 336 335 334
347 346 345 345 345 346 345 347 353 354 350 345 343 346 351 351 348 345 344 342 340 340 340 339 339 339 339 339 339 338 336 335 336 337 337 335 334 335 335 335 334 336
347 345 345 345 346 348 350 351 355 358 356 350 344 344 351 354 352 348 347 344 338 337 338 337 337 338 337 336 337 339 339 336 335 335 335 334 332 332 334 334 332 333
348 347 346 345 347 349 353 355 355 356 358 356 348 344 348 354 356 352 350 348 343 337 336 335 334 335 336 334 334 337 338 338 336 336 334 332 331 332 332 332 334 337
351 350 349 348 349 349 352 355 355 356 358 358 354 349 347 350 355 355 353 352 349 342 338 337 334 334 334 333 333 334 336 336 335 336 335 333 331 331 331 332 337 345
354 353 351 351 351 349 350 353 356 356 358 358 357 354 351 349 352 355 356 354 352 347 342 340 338 334 333 333 332 332 334 335 335 335 335 334 333 331 331 333 336 342
356 355 354 353 352 351 350 351 355 357 357 357 358 356 354 352 351 354 357 356 355 351 345 342 341 336 332 331 331 331 332 333 334 334 334 334 335 334 333 333 336 340
358 356 356 354 353 352 351 350 353 356 357 356 357 357 355 354 352 352 355 357 358 356 351 344 340 337 333 331 330 330 331 331 332 334 335 334 335 335 333 331 332 338
359 358 356 355 354 353 352 351 352 356 356 355 356 357 356 355 353 352 353 355 358 359 357 352 346 341 335 331 331 330 330 331 331 332 335 335 333 333 333 331 328 329
361 360 358 356 355 354 354 353 352 354 356 355 355 356 357 357 355 354 352 353 355 357 358 357 354 350 342 335 331 330 329 331 331 331 333 336 338 336 334 332 329 327
362 361 359 357 356 355 355 355 354 354 355 356 355 356 358 358 357 356 354 353 354 356 356 357 358 357 353 344 335 331 330 331 331 332 334 339 345 345 342 337 333 330
363 363 361 358 357 356 356 356 355 354 355 356 356 357 358 359 358 358 357 355 353 354 355 357 358 358 358 354 344 337 338 338 335 333 334 340 348 351 350 347 342 337
365 364 363 361 359 357 356 356 355 354 355 355 356 357 360 361 360 358 358 357 355 353 353 355 357 357 358 356 351 345 345 345 340 335 332 334 340 346 350 352 350 342
366 366 364 362 360 359 357 356 356 355 355 354 354 357 362 363 361 359 358 357 357 355 352 351 353 356 357 356 353 351 350 348 344 340 336 332 332 334 337 342 343 339
367 367 366 363 361 361 359 359 357 356 354 353 352 357 362 362 361 360 359 358 358 357 355 351 350 352 353 352 350 348 349 348 347 345 343 337 334 332 331 332 333 333
367 367 367 364 363 363 363 363 361 357 354 354 353 353 357 359 360 362 362 361 360 358 356 354 351 350 350 348 345 344 345 346 347 346 345 342 338 336 335 333 332 331
Wind_Speed
37 36 35 34 32 30 28 27 26 25 24 23 22 21 19 18 16 16 16 15 15 15 14 13 12 12 11 10 10 11 9 7 6 6 6 6 6 6 5 4 5 8
37 36 36 34 33 32 30 28 26 26 25 24 23 21 19 18 18 18 18 17 15 15 15 15 14 13 13 12 11 11 10 8 7 7 6 6 7 6 6 6 5 7
37 36 36 35 34 33 31 29 27 26 25 25 24 21 19 18 18 19 20 19 17 15 15 16 15 15 14 13 13 12 11 10 8 8 8 8 8 8 7 7 6 5
38 37 36 35 34 33 32 30 29 28 26 26 25 23 20 19 19 19 20 20 19 17 16 16 16 16 15 14 14 13 12 11 10 9 9 9 8 8 8 8 8 7
38 37 36 36 34 33 32 31 30 30 28 26 26 25 23 21 20 20 21 21 20 19 18 17 17 17 16 16 15 15 14 13 12 11 10 9 9 9 8 8 10 11
39 38 37 36 35 33 32 31 31 31 29 28 27 26 25 23 23 22 22 21 20 21 21 20 19 18 17 17 16 16 16 14 13 13 12 11 10 10 9 9 11 12
40 39 38 37 35 33 32 32 31 31 30 29 27 27 26 26 26 25 23 22 21 22 22 22 22 21 19 18 17 17 17 16 15 15 14 12 12 11 10 11 13 13
40 39 39 38 36 35 33 32 32 31 30 29 28 27 27 27 28 28 25 23 22 22 22 22 22 21 20 20 18 17 17 17 17 17 15 14 13 13 12 13 14 14
41 40 40 39 38 36 35 34 33 32 31 30 29 28 28 28 29 28 27 26 24 23 23 23 23 22 21 21 20 18 18 18 18 18 17 15 14 14 13 13 14 14
42 41 40 40 39 37 36 35 34 33 32 31 30 29 29 29 29 29 29 28 26 25 24 24 24 23 23 22 21 20 19 19 18 18 18 17 16 15 15 14 15 15
43 42 41 41 40 38 37 35 34 33 33 32 31 30 29 30 30 29 29 30 29 27 26 25 25 26 25 24 22 21 21 20 20 19 19 18 18 17 16 16 16 16
44 44 43 42 41 39 37 35 33 32 32 33 33 31 30 30 31 31 31 31 31 29 29 27 27 27 27 26 24 23 22 22 21 21 21 20 19 18 18 18 17 17
45 45 44 43 41 39 37 35 34 32 31 33 33 32 31 30 31 32 32 32 31 31 30 30 29 29 29 28 26 25 24 24 23 23 23 22 21 20 19 20 19 19
46 45 44 43 41 39 37 35 34 33 33 33 33 33 33 31 30 31 32 32 32 32 31 31 31 31 30 29 28 27 26 26 25 24 23 22 22 21 20 20 20 20
45 44 43 42 41 40 38 36 35 34 34 33 33 33 34 33 31 30 31 32 32 32 32 32 32 32 32 31 29 28 28 28 27 25 24 23 22 22 21 20 20 20
44 44 43 42 41 41 40 38 36 36 35 34 34 34 34 34 33 31 31 31 32 32 32 32 33 33 33 31 30 29 28 28 28 27 26 25 25 24 22 22 21 20
43 43 43 42 42 41 41 40 39 37 36 35 34 34 33 34 34 33 32 31 31 32 32 33 34 34 33 32 30 29 28 28 29 29 28 26 26 25 24 23 23 22
42 43 43 43 43 43 42 42 41 39 37 37 36 34 34 34 35 35 33 31 31 31 31 32 33 34 34 32 30 29 28 28 28 29 29 28 27 26 26 25 23 23
42 43 44 44 44 44 43 42 42 41 39 39 38 36 35 34 35 36 35 33 31 31 30 30 30 32 33 32 30 28 27 27 28 28 29 30 28 27 27 26 25 24
41 43 44 44 44 44 43 43 43 42 41 40 39 37 36 35 35 36 36 35 33 31 30 29 28 29 31 31 30 28 27 26 27 28 29 29 28 27 26 26 26 25
42 43 44 44 44 44 43 43 44 43 42 41 40 39 37 36 35 35 36 37 35 32 30 29 29 28 28 29 28 27 27 27 28 29 29 28 27 26 26 26 26 26
43 43 43 44 44 44 44 44 44 44 43 41 40 38 36 36 36 35 35 36 37 35 31 29 28 28 28 28 28 27 27 27 28 29 31 29 26 26 26 26 27 27
43 43 43 43 44 44 45 45 44 44 43 42 40 37 35 35 37 36 34 34 35 36 35 31 29 29 29 29 29 29 27 27 27 28 31 32 31 30 29 28 29 29
43 41 41 42 43 44 46 45 44 44 43 43 42 38 34 34 35 35 34 33 33 34 35 34 32 31 31 31 31 31 30 29 28 28 29 32 34 35 34 33 33 33
41 39 39 40 42 43 44 44 44 44 43 43 42 40 35 32 32 33 32 32 32 32 33 34 34 33 33 34 33 33 33 32 31 30 30 31 32 35 36 37 37 37
40 39 38 39 39 40 41 41 42 43 44 43 43 42 38 33 31 31 30 30 31 31 31 32 33 34 34 35 34 34 34 33 33 33 32 32 31 32 34 36 38 39
Wind_Direction
220 222 223 223 223 223 222 223 226 228 229 230 235 236 233 228 219 218 232 234 220 215 219 218 217 217 215 211 205 207 216 210 202 201 186 190 188 167 181 193 178 186
220 221 222 223 223 224 223 221 223 226 226 228 233 235 234 231 220 213 224 235 229 217 217 220 218 218 220 216 213 215 216 210 208 210 201 199 201 191 185 193 202 198
218 220 222 222 223 225 224 220 219 222 223 223 224 227 230 229 222 215 218 230 235 226 219 221 220 219 221 221 219 220 219 213 210 215 214 207 208 208 194 187 205 231
218 220 222 222 223 226 224 219 216 217 219 220 220 220 221 222 223 220 218 224 232 232 225 222 223 221 221 223 223 223 223 219 214 217 221 215 212 213 207 198 199 219
218 220 220 221 222 224 224 218 214 215 215 218 221 219 214 215 221 221 219 220 226 230 228 223 224 223 222 223 224 223 224 222 220 220 224 222 216 216 219 219 208 205
218 218 218 220 220 220 222 217 213 214 214 216 221 221 213 211 217 220 220 221 223 227 228 225 224 224 223 225 225 224 224 223 224 224 224 225 223 219 222 231 230 223
217 217 216 218 218 216 219 217 213 213 215 214 217 221 215 209 214 218 221 223 222 224 227 227 226 225 223 225 225 225 226 224 226 229 228 227 227 227 228 234 238 235
217 216 215 216 217 216 216 217 214 212 215 214 213 218 217 212 212 215 218 222 221 221 224 225 228 229 225 225 225 225 227 227 227 234 235 231 228 229 231 235 239 238
214 215 216 216 217 217 216 216 216 213 213 212 209 212 215 214 214 213 214 219 222 221 220 220 225 231 229 228 228 225 227 230 231 235 239 237 234 233 234 235 238 242
211 214 216 216 217 218 215 214 216 216 214 211 209 210 212 214 215 215 214 217 220 220 220 218 220 227 231 230 230 229 228 231 233 236 239 242 242 240 241 241 242 246
211 213 216 217 216 216 215 212 211 214 215 212 209 209 211 212 214 216 215 216 217 217 219 221 219 223 229 229 229 233 233 232 233 237 240 244 246 244 243 245 248 250
211 213 216 217 216 214 214 211 205 207 213 213 211 209 208 211 214 215 215 217 218 217 218 222 222 224 228 229 229 232 235 237 236 239 243 247 249 246 243 244 247 249
210 212 215 216 215 211 210 208 203 201 207 213 214 209 206 208 212 214 215 217 221 220 219 222 225 226 229 232 231 230 233 239 241 241 244 247 250 250 248 248 248 249
209 211 213 214 213 209 205 206 204 202 205 211 213 210 205 205 209 214 215 217 221 223 222 223 227 228 230 233 233 231 232 238 243 243 243 245 248 250 250 251 249 248
207 207 209 210 210 208 205 205 205 203 205 209 211 209 206 204 206 212 215 215 219 224 223 224 227 229 231 234 235 233 232 237 241 244 244 244 246 249 250 250 247 242
207 206 206 207 208 209 206 204 204 203 204 208 212 211 207 204 205 209 214 215 218 222 223 222 225 230 233 235 237 237 236 236 239 243 245 244 244 247 249 248 246 242
207 206 205 205 207 209 207 203 203 203 202 205 211 213 209 206 204 207 211 214 217 222 225 224 225 231 235 236 238 240 239 238 239 242 245 246 244 244 247 248 246 244
208 206 205 205 206 208 208 204 202 203 202 203 208 213 211 207 206 207 209 212 215 220 225 228 228 231 236 238 239 239 239 239 239 240 242 246 247 245 246 249 248 244
209 208 206 206 207 208 209 206 202 202 203 202 205 210 212 209 208 208 208 211 215 217 221 226 229 232 236 239 241 240 239 239 239 239 240 243 247 248 247 248 250 250
209 208 207 207 207 208 209 207 204 203 204 204 204 208 211 211 209 209 209 210 213 218 221 223 226 231 235 239 241 241 240 239 239 240 239 240 244 248 249 249 250 252
208 208 208 208 207 208 208 209 207 205 204 205 205 206 210 212 211 211 211 211 212 216 222 224 224 228 234 239 241 241 240 239 238 238 237 237 240 244 248 250 250 251
209 208 208 207 208 208 209 209 209 207 205 206 205 205 209 213 213 212 212 214 213 214 218 223 224 226 231 239 245 245 242 240 238 237 236 234 234 237 242 247 250 252
209 208 208 207 207 208 209 210 210 208 206 205 205 205 206 210 213 213 213 215 216 216 217 219 222 225 228 236 244 247 245 242 239 238 236 233 231 233 235 238 243 249
208 208 209 209 208 208 209 210 210 209 207 206 206 205 204 207 212 214 215 217 218 219 220 220 222 225 228 231 238 243 245 245 243 240 238 236 234 235 237 238 242 247
207 207 207 208 209 208 208 209 210 210 209 208 209 207 205 207 211 214 216 217 219 222 225 226 226 227 231 233 237 241 244 246 248 246 245 243 241 241 242 244 246 250
206 206 205 206 207 207 207 208 211 211 211 210 210 210 209 208 211 214 215 216 219 222 227 232 232 232 235 239 243 246 247 248 250 250 250 251 251 248 247 248 249 252